Location: Newark
(35.0033°N, 81.0878°W)
Time: 05:55:56
(UTC+00:00)

Envisat - Pass Details

Date: 26 October 2020
Orbit: 764 x 766 km, 98.1° (Epoch: 30 November)

Event Time Altitude Azimuth Distance (km) Brightness Sun altitude
Rises 23:50:55 0° 209° (SSW) 3,218 6.7 -16.0°
Reaches altitude 10° 23:54:10 10° 231° (SW) 2,297 6.3 -16.7°
Maximum altitude 23:57:07 16° 267° (W) 1,943 6.2 -17.3°
Drops below altitude 10° 00:00:06 10° 304° (WNW) 2,306 6.2 -17.9°
Sets 00:03:23 0° 326° (NW) 3,237 6.7 -18.5°
